Location: Arroyo de Valdeoliva
(40.1604°N, 4.9878°W)
Time: 08:32:33
(UTC+00:00)

Cosmos 1825 Rocket - Pass Details

Date: 25 March 2026
Orbit: 596 x 624 km, 82.5° (Epoch: 18 April)

Event Time Altitude Azimuth Distance (km) Brightness Sun altitude
Rises 05:07:41 0° 347° (NNW) 2,881 7.0 -13.6°
Reaches altitude 10° 05:09:56 10° 344° (NNW) 1,967 6.1 -13.2°
Maximum altitude 05:14:11 56° 266° (W) 724 3.6 -12.4°
Drops below altitude 10° 05:18:23 10° 188° (S) 1,937 5.9 -11.6°
Sets 05:20:36 0° 184° (S) 2,831 6.8 -11.2°
